Weather reports worldwide

Advertisment
Capo Caccia, Italy (16522): temperature & dewpoint: 15.01.2018 04:00:00 - 21.01.2018 04:00:00 (CET)Capo Caccia, Italy (16522): wind speed: 15.01.2018 04:00:00 - 21.01.2018 04:00:00 (CET)Capo Caccia, Italy (16522): wind direction: 15.01.2018 04:00:00 - 21.01.2018 04:00:00 (CET)Capo Caccia, Italy (16522): reduced air pressure: 15.01.2018 04:00:00 - 21.01.2018 04:00:00 (CET)Capo Caccia, Italy (16522): visibility: 15.01.2018 04:00:00 - 21.01.2018 04:00:00 (CET)Capo Caccia, Italy (16522): sunshine duration: 15.01.2018 04:00:00 - 21.01.2018 04:00:00 (CET)
Date & Time tt [°C] td [°C] ff [km/h] ff [kn] dd ppp [hPa] vv [km] sd [min]
21.01.2018 04:00:00 - - - - - - - -
21.01.2018 03:00:00 13,2 10,7 26 14 N 1011,0 15 -
21.01.2018 02:00:00 13,0 9,6 28 15 SSW 1011,3 15 -
21.01.2018 01:00:00 12,8 10,4 26 14 SSW 1012,3 15 -
21.01.2018 00:00:00 12,4 10,8 26 14 S 1013,4 15 -
20.01.2018 23:00:00 12,2 10,9 26 14 S 1013,4 15 -
20.01.2018 22:00:00 12,0 10,9 24 13 N 1014,4 15 -
20.01.2018 21:00:00 11,4 10,5 18 10 WSW 1015,2 15 -
20.01.2018 20:00:00 11,4 10,1 16 9 NNE 1015,4 15 -
20.01.2018 19:00:00 11,6 6,7 16 9 SE 1016,5 15 -
20.01.2018 18:00:00 11,4 6,9 24 13 E 1016,9 15 -
20.01.2018 17:00:00 11,6 6,7 28 15 WNW 1017,2 20 48
20.01.2018 16:00:00 11,6 6,7 24 13 NNE 1017,2 20 60
20.01.2018 15:00:00 11,6 7,1 29 16 WNW 1016,5 20 60
20.01.2018 14:00:00 11,4 6,5 28 15 NW 1017,2 20 60
20.01.2018 13:00:00 11,4 6,1 28 15 NW 1018,6 20 60
20.01.2018 12:00:00 11,4 6,1 24 13 NW 1019,1 20 60
20.01.2018 11:00:00 11,4 3,9 39 21 NW 1018,7 20 60
20.01.2018 10:00:00 11,4 3,9 34 18 NW 1018,6 20 60
20.01.2018 09:00:00 11,4 4,8 44 24 NW 1017,3 20 12
20.01.2018 08:00:00 12,0 7,9 42 23 NW 1016,7 20 0
20.01.2018 07:00:00 12,2 8,5 39 21 NW 1016,4 20 0
20.01.2018 06:00:00 12,2 8,5 39 21 NW 1016,2 20 -
20.01.2018 05:00:00 12,2 8,5 35 19 NW 1016,1 20 -
20.01.2018 04:00:00 12,2 8,3 34 18 NW 1016,4 20 -
20.01.2018 03:00:00 12,2 8,7 37 20 NW 1016,4 20 -
20.01.2018 02:00:00 12,4 8,1 37 20 NW 1016,4 20 -
20.01.2018 01:00:00 12,4 7,9 41 22 NW 1016,4 20 -
20.01.2018 00:00:00 12,2 8,5 35 19 NW 1016,4 20 -
19.01.2018 23:00:00 12,2 8,7 31 17 WNW 1016,4 20 -
19.01.2018 22:00:00 12,4 8,7 28 15 NW 1016,4 20 -
19.01.2018 21:00:00 12,2 8,3 29 16 WNW 1016,4 20 -
19.01.2018 20:00:00 12,2 8,3 26 14 NW 1016,1 20 -
19.01.2018 19:00:00 12,2 11,3 34 18 WNW 1015,4 20 0
19.01.2018 18:00:00 12,2 11,3 28 15 WNW 1015,4 15 0
19.01.2018 17:00:00 12,2 11,3 21 11 WNW 1015,7 15 0
19.01.2018 16:00:00 12,2 11,1 26 14 NW 1015,4 15 0
19.01.2018 15:00:00 12,2 10,6 29 16 WNW 1016,0 15 0
19.01.2018 14:00:00 12,4 10,5 24 13 WNW 1016,4 15 0
19.01.2018 13:00:00 12,4 10,3 21 11 WNW 1016,8 15 0
19.01.2018 12:00:00 12,2 10,1 18 10 SW 1017,3 15 0
19.01.2018 11:00:00 12,2 9,8 16 9 W 1017,2 15 12
19.01.2018 10:00:00 12,2 9,9 18 10 W 1016,7 15 12
19.01.2018 09:00:00 12,0 10,6 16 9 WNW 1016,5 12 0
19.01.2018 08:00:00 12,0 10,9 21 11 W 1016,5 12 0
19.01.2018 07:00:00 12,0 9,4 18 10 W 1016,5 20 -
19.01.2018 06:00:00 12,2 11,1 15 8 WNW 1016,7 20 -
19.01.2018 05:00:00 12,2 10,6 18 10 WNW 1017,0 20 -
19.01.2018 04:00:00 12,2 11,1 13 7 NE 1017,5 20 -
19.01.2018 03:00:00 12,2 10,8 16 9 SE 1018,5 20 -
19.01.2018 02:00:00 12,4 10,8 13 7 NE 1019,2 20 -
19.01.2018 01:00:00 12,2 10,6 9 5 E 1019,4 20 -
19.01.2018 00:00:00 12,0 10,6 9 5 SE 1020,2 20 -
18.01.2018 23:00:00 12,0 10,4 13 7 NNW 1020,6 20 -
18.01.2018 22:00:00 12,0 10,4 8 4 ENE 1020,6 20 -
18.01.2018 21:00:00 12,0 10,4 8 4 WSW 1021,0 20 -
18.01.2018 20:00:00 12,0 10,4 9 5 N 1021,4 20 -
18.01.2018 19:00:00 12,0 10,4 9 5 NW 1021,6 15 -
18.01.2018 18:00:00 12,2 10,6 8 4 SSW 1021,6 15 0
18.01.2018 17:00:00 12,4 10,5 11 6 SSW 1021,5 20 0
18.01.2018 16:00:00 12,4 9,0 13 7 WSW 1022,6 20 48
18.01.2018 15:00:00 12,6 8,3 15 8 SSE 1022,6 20 54
18.01.2018 14:00:00 12,4 8,1 16 9 W 1023,4 20 60
18.01.2018 13:00:00 12,2 7,3 24 13 W 1023,6 20 60
18.01.2018 12:00:00 12,2 7,5 22 12 W 1024,6 15 60
18.01.2018 11:00:00 12,0 6,7 21 11 W 1024,6 20 60
18.01.2018 10:00:00 11,8 8,3 22 12 W 1023,6 12 60
18.01.2018 09:00:00 11,4 7,6 21 11 WNW 1023,7 20 0
18.01.2018 08:00:00 11,4 7,8 22 12 WNW 1022,7 20 0
18.01.2018 07:00:00 11,4 6,8 21 11 WNW 1022,6 20 0
18.01.2018 06:00:00 11,4 5,5 31 17 WNW 1022,5 20 -
18.01.2018 05:00:00 11,2 4,8 31 17 WNW 1022,6 20 -
18.01.2018 04:00:00 11,2 4,8 31 17 WNW 1022,2 20 -
18.01.2018 03:00:00 11,4 3,5 35 19 NW 1021,9 20 -
18.01.2018 02:00:00 11,4 2,9 41 22 NW 1021,9 20 -
18.01.2018 01:00:00 11,4 2,7 39 21 NNE 1021,9 20 -
18.01.2018 00:00:00 11,4 4,0 41 22 NW 1021,6 20 -
17.01.2018 23:00:00 11,4 2,7 42 23 WNW 1021,6 20 -
17.01.2018 22:00:00 11,4 2,7 48 26 WNW 1019,8 20 -
17.01.2018 21:00:00 11,4 2,7 52 28 WNW 1019,6 20 -
17.01.2018 20:00:00 11,4 1,9 55 30 WNW 1018,5 20 -
17.01.2018 19:00:00 11,4 4,8 55 30 WNW 1018,1 20 0
17.01.2018 18:00:00 11,4 3,5 50 27 NW 1018,5 20 18
17.01.2018 17:00:00 13,0 5,0 41 22 NW 1018,9 20 60
17.01.2018 16:00:00 13,0 4,0 42 23 WNW 1018,0 20 60
17.01.2018 15:00:00 13,4 4,6 39 21 WNW 1016,7 20 60
17.01.2018 14:00:00 13,6 3,3 37 20 WNW 1017,1 20 60
17.01.2018 13:00:00 13,8 5,7 44 24 WNW 1017,0 20 60
17.01.2018 12:00:00 13,8 6,1 48 26 WNW 1016,5 20 60
17.01.2018 11:00:00 13,8 6,6 46 25 WNW 1016,2 20 60
17.01.2018 10:00:00 13,8 7,4 46 25 WNW 1015,8 10 60
17.01.2018 09:00:00 14,0 9,7 41 22 WNW 1014,3 20 12
17.01.2018 08:00:00 13,0 12,2 21 11 NNW 1014,0 10 0
17.01.2018 07:00:00 12,8 12,0 15 8 S 1014,1 15 -
17.01.2018 06:00:00 12,8 12,0 16 9 WNW 1014,1 15 -
17.01.2018 05:00:00 12,8 11,9 13 7 NE 1014,7 15 -
17.01.2018 04:00:00 12,8 12,0 9 5 N 1015,1 15 -
17.01.2018 03:00:00 12,6 12,0 16 9 NW 1015,4 15 -
17.01.2018 02:00:00 13,0 12,4 13 7 E 1015,6 15 -
17.01.2018 01:00:00 12,8 12,2 16 9 S 1016,4 15 -
17.01.2018 00:00:00 12,6 12,0 18 10 NNW 1016,8 15 -
16.01.2018 23:00:00 12,6 11,8 18 10 N 1016,8 15 -
16.01.2018 22:00:00 12,6 11,8 22 12 NNW 1018,1 15 -
16.01.2018 21:00:00 12,8 11,5 18 10 NNE 1017,9 15 -
16.01.2018 20:00:00 12,8 10,9 15 8 SW 1017,6 15 -
16.01.2018 19:00:00 12,8 11,5 16 9 NNW 1018,4 15 -
16.01.2018 18:00:00 13,4 12,1 21 11 NE 1018,6 20 0
16.01.2018 17:00:00 13,6 11,1 16 9 WNW 1018,6 20 60
16.01.2018 16:00:00 13,8 11,3 15 8 WSW 1018,6 20 60
16.01.2018 15:00:00 13,6 11,1 18 10 N 1018,6 20 60
16.01.2018 14:00:00 13,8 11,3 24 13 W 1018,7 20 60
16.01.2018 13:00:00 13,8 11,3 22 12 ENE 1019,4 20 60
16.01.2018 12:00:00 13,6 11,1 26 14 NW 1019,7 20 60
16.01.2018 11:00:00 12,8 9,4 21 11 ENE 1020,5 20 60
16.01.2018 10:00:00 12,6 10,0 24 13 WNW 1020,5 20 48
16.01.2018 09:00:00 12,0 8,5 18 10 WNW 1020,8 15 0
16.01.2018 08:00:00 12,4 9,0 16 9 NE 1020,6 15 0
16.01.2018 07:00:00 12,4 9,6 18 10 W 1020,5 15 0
16.01.2018 06:00:00 12,2 7,9 16 9 ESE 1020,5 15 -
16.01.2018 05:00:00 12,2 8,9 15 8 W 1021,0 15 -
16.01.2018 04:00:00 12,2 8,5 22 12 ESE 1021,3 15 -
16.01.2018 03:00:00 12,2 9,9 15 8 WNW 1021,7 15 -
16.01.2018 02:00:00 12,2 9,8 15 8 NNW 1023,1 15 -
16.01.2018 01:00:00 12,0 8,7 22 12 ESE 1023,3 15 -
16.01.2018 00:00:00 12,0 8,5 21 11 E 1023,3 20 -
15.01.2018 23:00:00 12,0 9,5 24 13 ESE 1022,5 20 -
15.01.2018 22:00:00 12,0 8,7 18 10 N 1022,5 20 -
15.01.2018 21:00:00 12,0 9,7 13 7 N 1022,3 20 -
15.01.2018 20:00:00 12,0 9,4 11 6 N 1021,7 20 -
15.01.2018 19:00:00 12,0 9,2 9 5 NE 1022,4 20 0
15.01.2018 18:00:00 12,2 9,2 9 5 N 1022,2 20 0
15.01.2018 17:00:00 13,0 9,6 9 5 NNW 1021,6 20 30
15.01.2018 16:00:00 13,0 9,2 9 5 SE 1021,6 20 30
15.01.2018 15:00:00 13,0 8,7 8 4 NW 1021,6 20 60
15.01.2018 14:00:00 13,2 9,1 9 5 S 1021,6 20 60
15.01.2018 13:00:00 13,2 8,7 9 5 NW 1022,4 20 36
15.01.2018 12:00:00 13,0 7,5 8 4 NNW 1022,4 20 30
15.01.2018 11:00:00 12,6 7,9 4 2 WSW 1022,5 20 30
15.01.2018 10:00:00 12,0 8,3 4 2 SW 1021,8 20 36
15.01.2018 09:00:00 11,0 9,1 5 3 W 1021,6 20 12
15.01.2018 08:00:00 11,0 9,2 9 5 W 1020,8 20 0
15.01.2018 07:00:00 10,8 9,6 8 4 WNW 1020,0 20 0
15.01.2018 06:00:00 10,8 10,0 9 5 SSE 1019,6 20 -
15.01.2018 05:00:00 10,8 10,0 15 8 S 1019,8 20 -
15.01.2018 04:00:00 10,6 9,8 16 9 SSE 1019,8 20 -

tt = temperature
td = dewpoint
ff = wind speed
dd = wind direction
ppp = reduced air pressure
vv = visibility
sd = sunshine duration

Next stations